Location: Dal�� Lhota
(48.7500°N, 14.0167°E)
Time: 17:04:40
(UTC+00:00)

Vanguard 3 - Pass Details

Date: 09 August 2021
Orbit: 510 x 3260 km, 33.3° (Epoch: 20 September)

Event Time Altitude Azimuth Distance (km) Brightness Sun altitude
Rises 14:46:00 0° 226° (SW) 4,344 11.7 35.1°
Reaches altitude 10° 14:48:48 10° 217° (SW) 3,700 11.4 34.6°
Maximum altitude 14:57:41 34° 156° (SSE) 3,112 10.3 33.2°
Drops below altitude 10° 15:11:19 10° 101° (E) 5,719 11.1 31.1°
Sets 15:16:58 0° 94° (E) 7,012 11.4 30.1°
